| time (UTC) | temp F | wind direction | speed MPH | gust MPH | rain 1hr in | rain 24hr in | rain mn in | humidity % | barometer mb |
| 20260505153101 | 79 | 197 | 8.0 | 13.0 | 0.00 | 0.00 | 0.00 | 47 | 1007.9 |
| 20260505151600 | 79 | 140 | 8.0 | 21.0 | 0.00 | 0.00 | 0.00 | 49 | 1007.8 |
| 20260505124523 | 66 | 164 | 6.0 | 14.0 | 0.00 | 0.00 | 0.00 | 67 | 1008.7 |
| 20260505123014 | 65 | 146 | 8.0 | 12.0 | 0.00 | 0.00 | 0.00 | 66 | 1008.9 |
| 20260505121512 | 64 | 173 | 6.0 | 11.0 | 0.00 | 0.00 | 0.00 | 69 | 1009.0 |
| 20260505120020 | 63 | 174 | 4.0 | 8.0 | 0.00 | 0.00 | 0.00 | 69 | 1009.1 |
| 20260505114506 | 62 | 153 | 5.0 | 10.0 | 0.00 | 0.00 | 0.00 | 70 | 1009.0 |
| 20260505113003 | 61 | 185 | 4.0 | 9.0 | 0.00 | 0.00 | 0.00 | 72 | 1008.7 |
| 20260505111503 | 59 | 159 | 5.0 | 9.0 | 0.00 | 0.00 | 0.00 | 74 | 1008.6 |
| 20260505101556 | 59 | 162 | 3.0 | 7.0 | 0.00 | 0.00 | 0.00 | 73 | 1008.1 |
| 20260505100054 | 59 | 185 | 3.0 | 10.0 | 0.00 | 0.00 | 0.00 | 73 | 1007.9 |
| 20260505094553 | 59 | 153 | 4.0 | 12.0 | 0.00 | 0.00 | 0.00 | 74 | 1007.9 |
| 20260505093058 | 59 | 145 | 2.0 | 11.0 | 0.00 | 0.00 | 0.00 | 74 | 1007.7 |
| 20260505091602 | 59 | 144 | 3.0 | 12.0 | 0.00 | 0.00 | 0.00 | 74 | 1007.7 |
| 20260505090050 | 59 | 150 | 3.0 | 11.0 | 0.00 | 0.00 | 0.00 | 74 | 1007.7 |
| 20260505084552 | 59 | 157 | 2.0 | 9.0 | 0.00 | 0.00 | 0.00 | 73 | 1007.7 |
| 20260505083054 | 60 | 158 | 2.0 | 8.0 | 0.00 | 0.00 | 0.00 | 72 | 1007.5 |
| 20260505081550 | 60 | 152 | 4.0 | 12.0 | 0.00 | 0.00 | 0.00 | 73 | 1007.5 |
| 20260505080049 | 59 | 123 | 5.0 | 11.0 | 0.00 | 0.00 | 0.00 | 74 | 1007.5 |
| 20260505074547 | 57 | 182 | 3.0 | 10.0 | 0.00 | 0.00 | 0.00 | 76 | 1007.5 |
| 20260505073147 | 57 | 160 | 2.0 | 9.0 | 0.00 | 0.00 | 0.00 | 76 | 1007.3 |
| 20260505071554 | 57 | 159 | 1.0 | 5.0 | 0.00 | 0.00 | 0.00 | 76 | 1007.3 |
| 20260505070041 | 57 | 171 | 2.0 | 6.0 | 0.00 | 0.00 | 0.00 | 76 | 1007.2 |
| 20260505064541 | 58 | 142 | 2.0 | 5.0 | 0.00 | 0.00 | 0.00 | 77 | 1007.2 |
| 20260505063038 | 58 | 159 | 3.0 | 6.0 | 0.00 | 0.00 | 0.00 | 77 | 1007.3 |
| 20260505061537 | 58 | 152 | 3.0 | 7.0 | 0.00 | 0.00 | 0.00 | 77 | 1007.5 |
| 20260505060045 | 58 | 162 | 1.0 | 7.0 | 0.00 | 0.00 | 0.00 | 75 | 1007.6 |
| 20260505054534 | 59 | 167 | 2.0 | 7.0 | 0.00 | 0.00 | 0.00 | 74 | 1007.6 |
| 20260505053030 | 60 | 150 | 2.0 | 6.0 | 0.00 | 0.00 | 0.00 | 72 | 1007.7 |
| 20260505051527 | 61 | 188 | 2.0 | 7.0 | 0.00 | 0.00 | 0.00 | 71 | 1007.7 |
| 20260505041521 | 62 | 166 | 3.0 | 12.0 | 0.00 | 0.00 | 0.00 | 70 | 1007.3 |
| 20260505040012 | 63 | 169 | 4.0 | 11.0 | 0.00 | 0.00 | 0.00 | 68 | 1007.3 |
| 20260505034511 | 64 | 184 | 3.0 | 7.0 | 0.00 | 0.00 | 0.00 | 67 | 1007.3 |
| 20260505033012 | 65 | 188 | 2.0 | 5.0 | 0.00 | 0.00 | 0.00 | 66 | 1007.3 |
| 20260505031507 | 65 | 172 | 4.0 | 9.0 | 0.00 | 0.00 | 0.00 | 65 | 1007.4 |
| 20260505030007 | 65 | 144 | 5.0 | 12.0 | 0.00 | 0.00 | 0.00 | 63 | 1007.4 |
| 20260505024509 | 65 | 160 | 5.0 | 11.0 | 0.00 | 0.00 | 0.00 | 65 | 1007.4 |
| 20260505023017 | 64 | 175 | 6.0 | 13.0 | 0.00 | 0.00 | 0.00 | 66 | 1007.5 |
| 20260505021506 | 63 | 165 | 4.0 | 10.0 | 0.00 | 0.00 | 0.00 | 67 | 1007.2 |
| 20260505020006 | 64 | 167 | 3.0 | 8.0 | 0.00 | 0.00 | 0.00 | 65 | 1007.2 |
| 20260505014511 | 65 | 163 | 4.0 | 6.0 | 0.00 | 0.00 | 0.00 | 64 | 1007.2 |
| 20260505013002 | 66 | 165 | 3.0 | 6.0 | 0.00 | 0.00 | 0.00 | 63 | 1007.1 |
| 20260505011502 | 67 | 164 | 2.0 | 9.0 | 0.00 | 0.00 | 0.00 | 60 | 1006.9 |
| 20260505010001 | 67 | 181 | 7.0 | 15.0 | 0.00 | 0.00 | 0.00 | 61 | 1006.7 |
| 20260505004501 | 67 | 172 | 5.0 | 12.0 | 0.00 | 0.00 | 0.00 | 57 | 1006.6 |
| 20260505003105 | 67 | 155 | 5.0 | 13.0 | 0.00 | 0.00 | 0.00 | 56 | 1006.3 |
| 20260505003001 | 67 | 169 | 5.0 | 13.0 | 0.00 | 0.00 | 0.00 | 56 | 1006.3 |
| 20260505001600 | 68 | 151 | 5.0 | 13.0 | 0.00 | 0.00 | 0.00 | 55 | 1006.2 |
| 20260505000108 | 69 | 151 | 3.0 | 10.0 | 0.00 | 0.00 | 0.00 | 53 | 1006.3 |
| 20260504234559 | 70 | 144 | 4.0 | 8.0 | 0.00 | 0.00 | 0.00 | 51 | 1006.2 |
| 20260504233106 | 71 | 151 | 5.0 | 10.0 | 0.00 | 0.00 | 0.00 | 49 | 1006.0 |
| 20260504231558 | 72 | 173 | 4.0 | 14.0 | 0.00 | 0.00 | 0.00 | 48 | 1006.0 |
| 20260504230104 | 73 | 167 | 5.0 | 14.0 | 0.00 | 0.00 | 0.00 | 46 | 1006.0 |
| 20260504224556 | 74 | 119 | 6.0 | 17.0 | 0.00 | 0.00 | 0.00 | 45 | 1006.1 |
| 20260504223101 | 74 | 147 | 7.0 | 15.0 | 0.00 | 0.00 | 0.00 | 44 | 1006.1 |
| 20260504221555 | 74 | 132 | 6.0 | 12.0 | 0.00 | 0.00 | 0.00 | 44 | 1006.2 |
| 20260504220056 | 75 | 145 | 7.0 | 18.0 | 0.00 | 0.00 | 0.00 | 43 | 1006.1 |
| 20260504214608 | 75 | 163 | 8.0 | 17.0 | 0.00 | 0.00 | 0.00 | 44 | 1006.1 |
| 20260504213059 | 74 | 173 | 6.0 | 15.0 | 0.00 | 0.00 | 0.00 | 44 | 1006.1 |
| 20260504211555 | 74 | 148 | 6.0 | 14.0 | 0.00 | 0.00 | 0.00 | 44 | 1006.2 |
| 20260504210052 | 75 | 150 | 7.0 | 13.0 | 0.00 | 0.00 | 0.00 | 42 | 1006.1 |
| 20260504204552 | 77 | 128 | 8.0 | 20.0 | 0.00 | 0.00 | 0.00 | 41 | 1006.2 |
| 20260504203048 | 77 | 165 | 6.0 | 15.0 | 0.00 | 0.00 | 0.00 | 44 | 1006.3 |
| 20260504201559 | 76 | 165 | 8.0 | 15.0 | 0.00 | 0.00 | 0.00 | 45 | 1006.5 |
| 20260504200046 | 77 | 180 | 9.0 | 16.0 | 0.00 | 0.00 | 0.00 | 42 | 1006.7 |
| 20260504194548 | 76 | 144 | 9.0 | 17.0 | 0.00 | 0.00 | 0.00 | 42 | 1007.0 |
| 20260504193038 | 75 | 117 | 6.0 | 13.0 | 0.00 | 0.00 | 0.00 | 44 | 1007.5 |
| 20260504191539 | 75 | 160 | 6.0 | 15.0 | 0.00 | 0.00 | 0.00 | 46 | 1007.7 |
| 20260504190035 | 74 | 195 | 6.0 | 17.0 | 0.00 | 0.00 | 0.00 | 44 | 1007.9 |
| 20260504184538 | 75 | 153 | 8.0 | 15.0 | 0.00 | 0.00 | 0.00 | 42 | 1008.2 |
| 20260504183030 | 75 | 173 | 4.0 | 12.0 | 0.00 | 0.00 | 0.00 | 45 | 1008.4 |
| 20260504181532 | 74 | 150 | 7.0 | 15.0 | 0.00 | 0.00 | 0.00 | 45 | 1008.7 |
| 20260504180025 | 74 | 149 | 7.0 | 13.0 | 0.00 | 0.00 | 0.00 | 45 | 1008.9 |
| 20260504174522 | 73 | 165 | 6.0 | 13.0 | 0.00 | 0.00 | 0.00 | 46 | 1009.0 |
| 20260504173019 | 72 | 173 | 2.0 | 16.0 | 0.00 | 0.00 | 0.00 | 42 | 1009.3 |
| 20260504171515 | 72 | 163 | 8.0 | 13.0 | 0.00 | 0.00 | 0.00 | 47 | 1009.5 |
| 20260504160106 | 69 | 151 | 8.0 | 11.0 | 0.00 | 0.00 | 0.00 | 46 | 1010.6 |